Location: Haliburton Scout Reserve
(45.0900°N, 78.3200°W)
Time: 13:42:30
(UTC-05:00)

A-11 Canister half - Visible Passes

Search period start: 07 February 2023 00:00
Search period end: 17 February 2023 00:00
Orbit: 1514 x 1686 km, 47.2° (Epoch: 06 February)

Date Brightness Start Highest point End Pass type
(mag) Time Alt. Az. Time Alt. Az. Time Alt. Az.
07 Feb 11.4 18:08:36 10° W 18:14:18 18° SW 18:19:59 10° SSW visible
10 Feb 11.8 06:39:50 10° SSE 06:44:22 14° ESE 06:48:51 10° E visible
11 Feb 11.8 06:17:44 10° SE 06:21:33 13° ESE 06:25:19 10° E visible
12 Feb 11.8 05:55:53 10° SE 05:58:43 11° ESE 06:01:32 10° ESE visible
13 Feb 11.8 05:34:49 10° SE 05:35:54 10° ESE 05:36:59 10° ESE visible
16 Feb 10.7 06:21:26 10° SSW 06:30:10 35° SE 06:38:43 10° ENE visible
